COSMOS 1759

Satellite information

Favourite Embed

Satellite Type and Status

PAYLOADIN ORBIT

Key statistics

Satellite COSMOS 1759 at a glance.

Uptime

14204

Days in orbit

Revolutions

≈ 13.8

Per day

Orbit

LEO

Low Earth Orbit

Inclination

82.9

Latest

Satellite identification and parameters

Extended collection of information and parameters for COSMOS 1759.

Object identification

Identified? True

Debris? False

Object name: COSMOS 1759

International designator: 1986-047A

Object number (NORAD): 16798

Object ID (CCSDS): 16798

Country: COMMONWEALTH OF INDEPENDENT STATES (CIS)

Current information (Y/N): Y

RCS size: LARGE

Orbital parameters

Period: 104.715 minutes

Inclination: 82.9173 deg

SMA: 7359.244 km

Apoapsis: 998.307 km

Periapsis: 963.91 km

RAAN: 129.988 deg

Eccentricy: 0.002337

Argument of periapsis: 307.6126 deg

Mean anomaly: 166.4662 deg

Mean motion: 13.75159177 rev/day

Mean motion (dot): 0.00000084 rev/day2

B* drag term: 0.000072489 1/REarth

Two-line elements (TLE)

Creation date: May 7, 2025, 2:26 p.m.

Reference frame: TEME

Reference center: EARTH

Epoch: May 7, 2025, 12:48 p.m. UTC

TLE line 0: 0 COSMOS 1759

TLE line 1: 1 16798U 86047A 25127.53399650 .00000084 00000-0 72489-4 0 9999

TLE line 2: 2 16798 82.9173 129.9880 0023370 307.6126 166.4662 13.75159177951181

Live tracking on map

Real-time ground track for satellite COSMOS 1759.

In-orbit conjunctions

A list of the most updated potential collisions computed for object COSMOS 1759.

Target Orbit TCA Probability of collision Miss distance Type
NIMBUS 2 DEB SSO 2025-01-13 19:55:47 0.0003160247 314.0 (m) DEBRIS
SL-8 R/B LEO 2024-12-13 00:08:33 0.002119616 170.0 (m) ROCKET BODY
FENGYUN 1C DEB SSO 2024-09-04 12:07:11 0.0001039449 901.0 (m) DEBRIS
YAOGAN 4 DEB SSO 2024-08-14 05:19:55 0.0001196861 325.0 (m) DEBRIS

Associated space launch

Navigation satellite providing location information for the Tsiklon-B navigation system

COSMOS 1759 was lifted into orbit during the mission ‘Kosmos-3M | Parus 55’, on board a Kosmos-3M space rocket.

The launch took place on June 18, 1986, 8:03 p.m. from 132/1 (132L).

For more information about the launch, click the button.

Launch to space Kosmos-3M | Parus 55
Kosmos-3M | Parus 55

Agency: N/A

Status: Launch Successful

Launch date: June 18, 1986, 8:03 p.m. UTC

Rocket: Kosmos-3M

Launch pad: 132/1 (132L)

Location: Plesetsk Cosmodrome, Russian Federation

...

Latest news about this satellite

There are no fresh news available about this satellite. Check back as we update our databases every day.


Newsletter sign-up

Weekly statistics, charts and insights to help you stay on top of the space industry.